{"data":{"norad_id":56916,"epoch":"2026-05-25T00:39:14.889888Z","epoch_age_seconds":72833,"freshness":"FRESH","line1":"1 56916U 23083AS  26145.02725567  .00000027  00000+0  10501-4 0  9994","line2":"2 56916  43.0012 359.5075 0001000 251.2614 108.8129 15.27576654163440","mean_motion":15.27576654,"eccentricity":0.0001,"inclination_deg":43.0012,"raan_deg":359.5075,"arg_perigee_deg":251.2614,"mean_anomaly_deg":108.8129,"bstar":1.0501e-5,"rev_number":16344,"period_min":94.266955195297,"perigee_km":482.37299557414,"apogee_km":483.74523479718,"semimajor_km":6861.1961151857,"source":"CELESTRAK","updated_at":"2026-05-25T13:38:18.204912Z"}}